Location: Rancho Santa Fe Post Office
(33.0184°N, 117.2026°W)
Time: 01:54:39
(UTC+00:00)

Cosmos 1666 - Pass Details

Date: 10 September 2024
Orbit: 414 x 432 km, 82.5° (Epoch: 06 October)

Event Time Altitude Azimuth Distance (km) Brightness Sun altitude
Rises 12:04:11 0° 345° (NNW) 2,378 6.1 -18.3°
Reaches altitude 10° 12:06:19 10° 337° (NNW) 1,504 5.0 -17.9°
Enters shadow 12:07:55 24° 320° (NW) 914 3.7 -17.6°
